Theta_e
314 315 316 316 315 316 316 317 318 320 321 322 322 324 324 323 321 310 302 309 314 325 322 305 304 305 308 306 307 306 294 292 294 297 300 302 299 301 305 304 308 311 311 313 326
312 313 314 314 315 315 315 315 317 318 319 320 322 323 322 322 309 302 310 317 322 324 309 301 300 303 301 303 302 299 290 292 298 301 301 303 300 303 304 308 309 312 316 321 328
312 312 312 313 313 314 314 314 315 316 317 319 321 322 321 315 297 295 317 321 321 322 310 307 306 302 300 301 299 298 293 297 301 306 305 304 301 302 303 302 308 310 315 321 325
314 313 312 312 312 313 313 314 314 315 315 317 319 321 319 308 286 304 321 321 327 317 310 306 303 296 296 298 301 294 299 300 303 306 305 303 304 301 303 304 309 315 320 321 323
313 313 312 312 312 312 313 312 313 313 314 315 317 319 313 300 296 304 317 317 319 315 309 303 299 296 295 297 299 294 298 299 300 305 303 304 302 301 303 306 311 318 320 321 322
313 313 313 312 311 312 312 312 312 313 313 314 315 317 307 294 306 307 305 307 312 313 309 307 301 300 297 297 297 297 299 299 300 302 302 301 298 303 305 308 315 318 318 319 322
312 313 313 311 311 311 311 311 311 312 312 313 314 312 304 301 306 305 308 307 308 313 309 308 306 300 301 297 300 299 296 297 298 300 299 303 297 300 305 310 313 315 317 318 320
313 313 312 311 310 311 311 311 311 311 312 313 313 309 298 312 313 308 305 304 306 308 312 314 310 304 305 305 300 296 294 290 295 300 300 298 289 296 304 309 310 312 313 318 319
313 313 312 311 311 311 311 310 310 311 311 312 306 303 296 311 305 308 306 302 302 305 306 314 310 302 302 296 292 292 287 288 292 299 298 295 290 295 301 306 308 309 311 316 318
312 311 311 311 311 311 311 309 308 308 306 307 306 296 300 299 303 304 304 304 300 299 303 305 303 295 294 292 286 287 286 288 290 294 296 294 292 295 299 301 303 306 307 310 313
311 310 310 311 310 310 306 300 294 294 298 293 293 295 301 306 309 302 305 301 300 299 294 298 293 288 290 293 292 293 291 289 291 295 295 292 293 297 298 295 296 299 302 303 306
309 310 310 310 310 310 304 296 296 297 288 296 298 299 303 305 297 300 305 296 293 290 294 293 288 292 295 296 294 291 290 288 291 292 293 290 291 295 296 295 298 298 298 299 300
309 309 309 310 309 302 299 297 304 302 289 292 298 296 299 302 297 297 301 296 290 290 291 285 287 294 293 292 292 290 287 287 288 290 290 286 286 289 292 293 294 297 300 301 301
308 309 309 310 299 297 296 302 306 304 284 286 292 296 300 300 293 303 302 298 292 289 289 288 290 290 288 288 292 287 292 290 288 286 282 287 280 285 289 290 291 293 294 297 299
308 308 308 308 296 294 298 303 304 301 269 288 293 304 301 295 296 297 302 297 289 289 289 285 285 286 286 287 291 288 292 290 288 284 283 283 281 284 286 288 291 293 293 293 294
307 307 308 300 297 299 301 301 300 283 271 285 293 292 293 293 292 296 296 299 295 289 286 285 289 287 288 289 291 290 287 285 283 283 276 283 283 282 286 288 290 289 289 291 292
307 307 305 302 293 300 299 291 274 275 286 284 286 292 290 286 286 291 289 288 284 280 277 282 283 287 289 286 288 286 283 272 272 273 276 279 281 285 288 289 288 289 290 290 292
307 306 301 302 300 299 292 279 266 272 282 288 287 290 286 287 286 288 288 286 288 282 279 276 274 284 288 286 284 282 282 274 268 270 272 279 278 283 286 289 289 291 290 292 294
304 295 295 298 300 295 282 266 269 275 285 285 286 285 285 287 287 285 286 286 287 284 279 276 276 284 286 287 287 283 279 281 277 268 273 276 280 285 286 287 288 288 289 291 293
293 290 290 299 298 289 275 273 275 287 287 286 281 284 280 285 285 285 285 288 288 289 285 281 277 283 286 288 288 285 286 278 276 267 267 274 276 278 282 285 286 287 288 290 293
295 282 290 299 294 281 268 266 276 286 288 285 281 278 281 283 286 285 285 288 290 290 289 284 281 280 284 282 281 283 280 281 280 278 273 271 275 282 283 286 286 286 288 291 292
290 274 290 300 283 278 276 273 285 284 288 286 286 284 283 284 284 286 285 287 294 293 287 288 283 275 277 283 285 284 282 281 275 274 276 276 276 283 284 286 287 287 289 290 291
284 285 293 296 279 279 273 282 283 282 284 285 284 286 287 283 280 286 288 292 294 292 289 290 280 274 276 280 282 282 284 283 281 280 277 273 275 284 285 285 285 286 287 289 289
285 276 284 291 285 277 270 271 279 283 284 285 285 287 284 282 285 283 285 291 293 292 295 293 284 279 275 278 281 280 283 283 282 276 276 277 277 280 282 284 285 287 287 287 287
285 281 279 279 282 283 280 277 277 273 282 285 280 283 283 276 282 281 286 288 291 294 292 290 278 282 282 283 282 282 282 282 282 280 278 279 279 281 284 285 286 287 287 288 288
284 282 285 272 275 282 282 273 277 279 280 278 276 283 283 276 282 281 284 284 286 288 290 288 280 284 281 284 284 281 282 283 282 282 280 280 281 284 285 285 286 287 287 288 289
290 291 287 282 277 279 280 280 278 282 282 284 283 282 281 285 288 287 288 287 287 286 285 285 282 279 277 282 281 278 280 282 282 282 283 280 284 287 286 286 286 287 288 289 289
Wind_Speed
10 12 13 13 13 14 15 15 15 15 15 16 15 13 11 10 12 3 10 10 8 8 8 7 6 6 3 3 1 3 3 3 4 6 5 1 4 3 1 6 0 4 6 2 17
8 10 12 12 13 13 15 16 16 16 16 16 15 13 11 9 4 11 15 19 17 11 6 5 6 6 4 3 2 3 4 9 6 3 3 1 3 5 4 4 1 1 3 8 17
9 10 11 12 12 13 14 16 17 17 17 17 16 14 8 4 5 8 4 6 17 12 5 2 1 2 3 3 4 4 6 5 5 4 2 3 2 2 6 4 7 9 8 13 16
11 11 11 12 12 13 15 16 16 18 18 18 16 15 7 2 8 1 4 8 10 8 3 1 2 3 5 7 5 3 8 4 1 3 2 3 3 3 7 6 5 9 16 14 16
12 12 12 12 13 13 13 15 16 17 18 18 18 15 4 6 10 9 6 5 4 3 6 8 7 4 5 5 3 5 5 4 6 5 4 1 4 3 6 4 3 10 13 16 15
13 12 12 12 13 13 13 15 16 18 19 18 17 15 8 19 4 7 8 5 5 4 4 6 6 5 6 5 7 4 9 7 5 5 3 5 3 4 6 4 6 11 12 11 17
14 12 11 11 13 12 13 17 19 20 20 20 17 9 12 18 3 2 1 3 3 4 4 5 5 3 2 4 8 3 3 4 7 5 5 4 6 8 6 5 9 10 10 8 9
13 11 10 11 12 13 15 17 18 21 20 21 18 8 15 4 16 14 2 4 5 5 3 5 6 5 3 7 2 8 1 4 3 9 5 9 9 7 6 9 10 9 8 11 12
11 10 12 12 13 14 15 18 19 21 21 19 10 5 11 3 6 11 8 6 2 3 4 4 3 5 3 3 1 5 7 6 4 9 4 6 6 4 5 7 9 9 8 11 10
11 12 14 12 13 14 14 18 20 19 7 6 8 3 6 4 3 7 6 10 4 2 2 5 5 3 3 6 16 6 5 3 9 4 3 4 7 4 2 5 8 7 7 7 7
12 14 14 13 12 12 6 6 6 3 0 7 8 7 4 1 2 3 6 9 5 3 8 4 6 14 16 5 2 5 5 6 2 2 4 7 6 11 5 1 5 7 7 8 10
13 14 14 14 11 12 2 2 4 5 11 14 16 10 4 2 5 8 6 10 8 10 7 4 17 5 5 6 5 3 5 4 2 2 4 2 7 9 4 5 6 7 7 8 5
12 12 14 13 8 3 3 5 4 6 7 8 11 5 3 4 5 4 11 6 7 10 13 7 5 12 7 6 9 4 5 4 3 2 2 2 5 6 3 4 5 6 6 5 8
12 12 13 10 4 1 5 4 7 6 4 4 7 7 5 4 6 12 13 11 5 15 8 6 4 7 5 7 8 14 6 4 5 4 4 2 6 5 6 6 6 7 7 8 7
11 12 12 5 3 2 4 6 7 2 5 2 4 1 7 9 3 7 14 1 6 7 8 9 6 6 5 3 6 5 6 8 3 4 1 1 1 8 2 5 7 9 9 7 6
10 12 12 2 1 6 5 7 1 3 7 5 2 5 5 4 3 2 8 3 2 5 3 4 1 3 9 2 7 8 8 9 6 3 2 6 5 5 5 5 3 1 2 3 6
9 12 8 2 4 5 4 3 5 1 2 7 6 4 2 3 1 4 9 6 7 6 3 3 1 3 2 6 3 3 7 3 4 1 6 2 4 8 4 5 1 2 4 5 5
10 11 4 4 2 4 4 6 5 5 2 3 7 8 3 5 4 4 10 7 8 5 5 7 2 6 3 4 8 4 6 7 8 5 4 1 7 8 2 7 3 7 5 5 5
4 4 3 4 0 3 6 5 7 4 3 7 10 2 2 2 1 1 6 6 6 6 7 5 4 2 2 2 5 5 4 4 7 2 4 4 7 7 2 5 6 6 6 5 5
2 2 3 6 3 5 6 5 3 2 2 2 6 4 7 5 1 1 7 2 3 4 2 6 4 2 1 1 3 4 7 3 3 4 2 3 4 5 2 5 4 6 6 5 4
2 4 4 3 4 6 3 7 5 5 4 2 2 4 4 5 5 1 6 4 5 2 1 4 4 2 3 3 6 2 1 4 4 3 5 4 6 5 5 6 7 5 5 6 6
2 3 4 3 3 1 1 4 6 4 3 4 2 1 3 5 5 4 2 2 9 3 1 3 4 3 3 3 3 1 5 5 5 4 0 1 5 3 4 6 7 6 5 4 4
2 2 3 2 2 3 6 2 4 4 3 4 3 2 2 2 4 6 5 4 11 10 7 2 0 4 5 6 4 4 4 3 4 3 4 6 5 6 5 6 4 7 5 4 3
2 1 3 2 2 5 2 5 3 5 4 2 3 2 1 1 2 4 5 3 5 7 12 5 2 4 7 4 7 6 6 5 5 4 3 5 4 2 2 5 5 5 4 2 1
2 5 5 4 5 5 4 4 4 5 3 2 4 4 2 1 1 2 3 5 4 6 2 6 4 0 1 5 4 3 8 9 8 5 7 5 8 7 7 8 5 2 1 3 4
6 4 1 2 2 9 9 6 11 4 4 4 2 1 4 4 4 3 1 4 4 6 3 3 2 3 1 3 5 2 5 9 5 6 2 5 6 6 6 2 4 4 3 4 5
3 1 3 6 5 7 8 9 8 7 6 6 7 2 1 5 5 2 1 5 2 2 3 1 3 3 4 0 6 3 10 8 5 5 8 8 7 8 6 6 7 6 6 7 7
Wind_Direction
343 336 334 331 330 331 329 326 321 316 314 312 299 294 303 313 317 284 264 237 224 289 328 313 325 330 311 277 240 139 83 211 237 170 239 304 220 152 155 123 224 168 150 232 133
333 330 326 327 327 327 327 327 326 319 313 309 300 288 295 320 297 277 244 247 244 261 298 299 306 338 301 252 266 151 171 208 205 211 257 265 192 180 136 137 213 186 34 128 140
323 318 322 320 319 319 315 316 322 325 319 311 307 288 284 330 314 251 324 305 249 239 229 266 258 278 244 194 213 189 216 202 225 203 227 282 217 202 140 226 209 190 153 151 153
323 313 315 323 324 320 317 315 311 314 319 317 308 297 260 180 257 158 352 349 348 147 200 231 226 228 220 208 201 221 247 232 263 201 199 239 312 247 183 229 219 178 161 151 165
331 313 311 318 320 314 312 311 310 308 310 312 309 299 255 219 232 274 340 335 52 129 206 202 200 189 206 214 212 215 252 198 225 222 233 313 249 235 255 260 87 129 160 168 174
333 318 308 307 316 312 312 311 308 306 306 303 302 293 247 248 218 275 268 264 230 197 205 197 214 224 266 228 186 227 222 234 199 220 251 200 261 145 256 135 135 154 175 180 180
330 316 305 312 318 314 309 309 301 302 299 295 299 290 246 248 236 30 160 216 225 209 223 214 229 277 252 287 230 260 271 242 230 198 229 164 274 222 223 148 172 189 182 182 190
327 312 306 312 315 312 314 313 306 299 287 291 293 287 261 225 232 256 293 311 272 256 227 255 217 222 214 308 239 170 172 203 248 163 227 147 258 249 214 164 199 201 200 189 199
334 325 316 304 308 315 314 318 307 285 282 279 286 192 264 358 217 233 203 205 246 259 259 276 177 202 205 228 218 218 197 199 298 199 134 175 251 251 191 194 203 200 205 211 200
339 337 327 311 308 313 324 316 285 294 289 241 238 281 226 230 231 199 205 194 213 277 266 215 200 200 195 174 207 167 160 174 203 201 197 198 249 282 41 199 230 220 195 217 231
334 338 334 322 315 322 346 333 7 340 296 255 238 227 111 144 211 277 170 165 160 190 194 238 202 213 207 212 12 158 182 209 173 144 149 228 223 244 236 288 267 245 228 216 231
329 333 329 326 314 319 71 229 191 272 295 250 249 245 264 82 267 230 203 166 165 196 146 213 231 214 195 209 217 199 185 209 340 116 153 207 251 261 227 240 208 226 230 231 225
330 332 329 325 325 14 228 236 172 260 255 287 209 217 185 145 229 229 203 166 157 164 188 189 233 175 182 180 193 210 173 163 174 123 63 122 288 257 251 215 236 243 232 227 224
338 336 332 329 343 356 275 294 276 273 257 235 200 225 176 159 268 216 204 188 171 190 143 234 244 174 172 205 172 220 181 147 132 120 204 55 276 267 243 248 245 246 235 243 227
338 337 334 325 267 319 260 315 316 264 296 184 168 255 160 170 353 207 167 341 176 155 142 216 180 143 202 210 160 211 149 154 122 103 105 173 88 271 231 254 249 242 234 236 253
331 335 334 1 351 246 337 307 300 220 258 309 298 196 155 157 340 203 147 292 220 122 75 181 253 176 194 141 163 160 88 48 55 81 316 201 159 261 223 218 274 82 239 167 117
324 324 321 163 240 319 338 33 29 13 337 336 347 242 152 147 193 243 157 175 173 131 155 8 206 281 165 89 52 116 103 33 19 16 223 328 178 247 262 255 167 187 132 111 107
316 319 297 233 257 2 15 40 59 257 314 307 324 266 197 155 203 220 156 178 236 94 125 143 218 189 176 178 170 172 153 152 175 186 192 126 221 248 225 276 110 98 101 87 90
1 328 308 280 27 69 62 42 202 242 284 333 316 289 217 168 171 175 194 183 191 184 139 128 216 21 341 137 144 188 189 154 105 25 79 213 282 307 140 63 97 105 88 85 82
73 6 285 314 83 64 73 256 241 246 295 271 4 345 5 333 356 255 148 176 252 185 190 204 128 12 304 115 33 142 156 80 2 119 224 278 288 242 196 152 136 127 123 102 88
64 27 273 353 55 49 152 234 284 270 263 299 291 313 351 350 315 71 159 171 222 338 18 123 97 315 115 210 170 100 123 61 117 139 158 136 254 226 216 186 161 149 145 143 142
122 18 296 353 51 83 141 218 307 298 297 299 295 294 31 328 323 346 175 224 172 285 356 5 110 132 194 264 244 165 171 142 130 225 215 154 263 335 251 153 141 154 155 147 134
150 239 339 125 204 223 297 261 283 305 310 326 306 24 45 346 353 358 334 345 189 175 184 225 1 91 16 354 350 185 168 130 108 79 195 132 254 352 52 96 111 139 162 166 169
106 333 311 195 117 146 158 258 249 280 258 288 303 328 92 282 206 308 332 348 308 220 154 146 259 180 183 181 141 174 164 160 133 126 172 216 178 265 211 118 111 123 140 161 29
119 239 185 192 203 181 175 179 202 288 287 269 337 248 233 354 295 330 321 310 358 16 90 180 161 166 66 98 107 134 164 175 191 166 166 196 184 218 202 169 159 145 306 311 317
168 175 176 199 200 182 192 229 198 225 153 275 200 272 197 191 212 226 162 8 25 346 299 350 157 115 107 26 43 68 166 184 182 188 232 157 248 189 204 153 135 167 227 188 187
194 202 161 191 169 174 206 212 217 161 246 220 207 222 353 244 211 223 158 164 207 260 333 14 138 107 157 348 86 307 217 192 177 191 166 187 218 168 203 179 200 222 208 216 231